User: anonymous   Login
Location: Chuathbaluk
(61.5726°N, 159.2454°W)
Time: 17:47:58
(UTC+00:00)
Language:

FO-99 - Orbit

View from above orbital plane
View from above orbital plane
View from above satellite
View from above satellite

Ground track
Ground track

The orbit data is extracted from the following two-line orbital elements,

1 43937U 19003F   21129.16659597  .00001466  00000-0  60015-4 0  9995
2 43937  97.1801 173.9186 0024282 148.3097 211.9610 15.25583181128278
Epoch (UTC): 09 May 2021 03:59:53
Eccentricity: 0.0024282
inclination: 97.1801°
perigee height: 472 km
apogee height: 506 km
right ascension of ascending node: 173.9186°
argument of perigee: 148.3097°
revolutions per day: 15.25583181
mean anomaly at epoch: 211.9610°
orbit number at epoch: 12827

The dashed part of the orbit path shows where the satellite is in the earth's shadow,  

DLR